www.pogodaiklimat.ru

Погода и климат >> Архив погоды >> Россия >> Красноярский край >> Нижнеусинское


ПОГОДА в Нижнеусинском

  • Прогноз погоды в Нижнеусинском
  • Монитор погоды в Нижнеусинском

АРХИВ ПОГОДЫ в Нижнеусинском

Время (UTC), дата Ветер
(напр.,м/с)
 
Видим.   Явления Облачность Т
(С)
Тd
(С)
f
(%)
Тe
(С)
Тes
(С)
Комфортность P
(гПа)
Po
(гПа)
Тmin
(С)
Tmax
(С)
R
(мм)
R24
(мм)
S
(см)
09 15.08 Ю 1 50 км 9/6 1000 м
[Sc Ac trans]
+23.3 +13.9 55 +27 +29 душно 1008.2 935.1
12 15.08 СВ 1 50 км 3/3 1000 м
[Sc]
+22.4 +15.4 65 +26 +27 жарко 1007.9 934.6 +23.3 0.9
15 15.08 штиль 0 н/о 3/3 1000 м
[Sc]
+14.2 +13.5 96 +14 +14 1010.7 935.2
18 15.08 штиль 0 н/о 6/6 1000 м
[Sc]
+11.1 +10.5 96 +10 +10 1012.1 935.6
21 15.08 штиль 0 н/о 9/6 1000 м
[Sc Ac trans Ci sp]
+10.6 +10.2 97 +10 +10 1011.6 935.0
00 16.08 штиль 0 50 км 9/8 1000 м
[Cb cap Ac trans Ci sp]
+10.1 +9.7 97 +9 +9 1010.7 934.0 +9.1
03 16.08 штиль 0 50 км 10/10 1000 м
[Cb cap]
+12.4 +11.6 95 +12 +12 1009.7 933.7
06 16.08 штиль 0 10 км слаб. ливневой дождь 10/10 600 м
[Cb cap]
+13.0 +12.3 96 +12 +12 1009.1 933.4
09 16.08 штиль 0 10 км слаб. ливневой дождь 10/10 600 м
[Cb cap]
+13.8 +13.3 97 +13 +13 1008.9 933.4
12 16.08 штиль 0 50 км {ливн. осадки} 9/9 1000 м
[Cb cap]
+15.1 +14.4 96 +15 +15 1009.1 933.9 +15.3 8
15 16.08 штиль 0 н/о дымка 8/8 1000 м
[Cb cap]
+12.1 +11.5 96 +11 +11 1011.0 934.9
18 16.08 ЮЗ 1 н/о туман ?/? +12.7 +12.1 96 +13 +13 1011.8 935.8
21 16.08 штиль 0 н/о {туман} 10/10 1000 м
[St]
+12.6 +12.0 96 +12 +12 1013.1 936.9
00 17.08 штиль 0 20 км {туман} 9/9 1000 м
[St]
+12.7 +11.3 91 +12 +12 1013.2 936.9 +11.7
03 17.08 В 1 50 км 8/8 1000 м
[Sc]
+16.5 +13.5 82 +17 +19 1011.9 936.9
06 17.08 С 2 50 км 8/8 1000 м
[Cb cap]
+21.3 +14.7 66 +24 +27 комфорт 1009.6 935.9
09 17.08 СЗ 3 50 км 10/10 1000 м
[Cb cap]
+20.4 +12.2 59 +23 +23 комфорт 1010.0 936.0
12 17.08 ЮЗ 1 50 км 9/9 1000 м
[Cb cap]
+18.2 +14.2 77 +20 +20 1011.3 936.7 +20.4
15 17.08 штиль 0 н/о 6/6 1000 м
[Sc]
+13.0 +12.3 96 +12 +12 1013.7 937.6
18 17.08 штиль 0 н/о ясно +9.2 +8.8 97 +8 +8 1015.2 937.9
21 17.08 штиль 0 н/о ясно +7.0 +6.6 97 +6 +6 1016.0 938.1
00 18.08 штиль 0 20 км 10/10 600 м
[St]
+8.5 +8.1 97 +8 +8 1015.8 938.3 +6.8
03 18.08 штиль 0 50 км 10/10 1000 м
[Cb cap]
+12.3 +11.2 93 +12 +12 1014.1 937.7
06 18.08 Ю 1 50 км 9/9 1000 м
[Cb cap]
+18.0 +12.8 72 +19 +21 1009.6 935.1
09 18.08 штиль 0 50 км 9/8 1000 м
[Sc Ac trans Ci sp]
+20.8 +11.2 54 +22 +24 комфорт 1007.4 933.6
12 18.08 СВ 2 50 км {ливн. осадки} 9/8 1000 м
[Cb cap Ac trans Ci sp]
+15.8 +14.2 90 +16 +16 1008.9 933.9 +21.6 2
15 18.08 ЮВ 1 н/о 9/4 1000 м
[Sc Ac lent Ci sp]
+12.1 +11.7 97 +12 +12 1011.9 935.7
18 18.08 штиль 0 н/о слаб. ливневой дождь 10/10 600 м
[Cb cap]
+11.9 +11.5 97 +11 +11 1014.4 938.0
21 18.08 штиль 0 н/о {ливн. осадки} 10/10 1000 м
[Cb cap]
+10.7 +10.1 96 +10 +10 1014.9 938.0
00 19.08 В 1 50 км {ливн. осадки} 9/9 1000 м
[Cb cap]
+11.1 +10.5 96 +11 +11 1016.7 939.8 +10.2 2
03 19.08 СВ 3 50 км 6/6 1000 м
[Sc]
+14.4 +12.4 88 +13 +16 1016.5 940.5
06 19.08 СЗ 4 50 км 8/8 1000 м
[Cb cap]
+19.6 +9.9 53 +21 +22 комфорт 1015.3 940.6
09 19.08 С 2
{11}
50 км 6/6 1000 м
[Cb cap]
+20.3 +7.7 44 +22 +25 комфорт 1015.1 940.6
12 19.08 СЗ 2 50 км 8/8 1000 м
[Sc Ci fib]
+19.0 +12.4 66 +21 +21 комфорт 1015.4 940.6 +22.5
15 19.08 СЗ 1 н/о 6/6 1000 м
[Sc]
+11.6 +10.8 95 +11 +11 1019.1 942.3
18 19.08 штиль 0 н/о 6/6 1000 м
[Sc]
+10.4 +9.6 95 +10 +10 1020.5 943.2
21 19.08 штиль 0 н/о 10/10 1000 м
[Cb cap]
+9.5 +9.1 97 +9 +9 1020.5 942.9
00 20.08 штиль 0 50 км 9/8 1000 м
[Cb cap Ac trans Ci sp]
+9.0 +8.6 97 +8 +8 1020.7 942.9 +8.7
03 20.08 штиль 0 50 км 9/6 1000 м
[Cb cap Ac trans Ci sp]
+14.5 +11.5 82 +14 +17 1017.0 944.1
06 20.08 В 1 50 км 8/4 1000 м
[Sc Ac trans Ci sp]
+21.0 +12.8 59 +25 +30 комфорт 1013.0 939.0
09 20.08 штиль 0 50 км 8/1 1000 м
[Sc Ac trans Ci sp]
+23.8 +12.7 50 +26 +31 жарко 1010.1 936.9
12 20.08 СВ 1 50 км 8/3 1000 м
[Cb cap Ac trans Ci sp]
+21.2 +13.8 63 +24 +24 комфорт 1009.4 935.7 +24.0
15 20.08 В 2
{11}
н/о {гроза, ливн. осадки} 8/8 1000 м
[Cb cap]
+13.9 +12.8 93 +13 +13 1015.2 939.3
18 20.08 штиль 0 н/о {гроза, ливн. осадки} 9/9 1000 м
[Cb cap]
+13.3 +12.8 97 +13 +13 1016.2 940.0
21 20.08 штиль 0 н/о 10/10 1000 м
[Cb cap]
+12.9 +12.3 96 +12 +12 1016.1 939.8
00 21.08 ЮЗ 1 50 км слаб. ливневой дождь 10/10 1000 м
[Cb cap]
+12.8 +12.2 96 +13 +13 1016.8 940.4 +12.7 5
03 21.08 СЗ 1 50 км слаб. ливневой дождь 10/10 600 м
[Cb cap]
+13.1 +12.5 96 +13 +13 1017.2 940.9
06 21.08 штиль 0 50 км {ливн. осадки} 8/8 1000 м
[Sc]
+17.8 +11.6 67 +18 +21 1014.9 939.9
09 21.08 СЗ 2 50 км 6/6 1000 м
[Sc]
+20.0 +10.4 54 +22 +25 комфорт 1013.4 939.0
12 21.08 СЗ 1 50 км 6/6 1000 м
[Sc]
+17.6 +14.1 80 +19 +19 1013.6 938.7 +21.5 4
15 21.08 штиль 0 н/о 6/3 1000 м
[Sc Ac trans Ci sp]
+10.9 +10.3 96 +10 +10 1015.6 938.8
18 21.08 штиль 0 н/о 3/3 1000 м
[Sc]
+7.8 +7.4 97 +7 +7 1017.7 939.8
21 21.08 ЮВ 1 н/о 10/10 600 м
[St]
+8.0 +7.6 97 +7 +7 1016.6 938.9
00 22.08 В 2 2000 м 10/10 300 м
[St]
+8.7 +8.3 97 +7 +7 1016.5 939.0 +6.8
03 22.08 ЮВ 1 50 км 9/9 1000 м
[Cb cap]
+12.3 +10.4 88 +12 +13 1015.4 939.0
06 22.08 ЮЗ 1 50 км 9/8 1000 м
[Cb cap Ac trans Ci sp]
+17.9 +12.3 70 +19 +21 1010.3 935.7

 

Местоположение метеостанции Нижнеусинское (Красноярский край, Россия): широта 52.27 долгота 93.02 высота над уровнем моря 662 м.

В архиве по умолчанию представлена погода в Нижнеусинском за последнюю неделю. Архивные данные за месяц целиком и за предыдущие месяцы, начиная с января 2011 года, Вы можете получить, выбрав интересующий диапазон дат из раскрывающегося списка и нажав кнопку "Ввод!".


*Определитесь, кто Вы:
робот инопланетянин человек

Внимание! Время в таблицах - всемирное. Для получения местного времени необходимо прибавить поправку, которая равна 7 ч.

Смотрите также архив погоды в соседних городах и на ближайших метеорологических станциях:

Погода в Оленьей Речке (Красноярский край, Россия) (61 км)
Погода в Туране (Тува, Россия) (63 км)
Погода в Усть-Усе (Красноярский край, Россия) (65 км)
Погода в Шагонаре (Тува, Россия) (97 км)
Погода в Кызыле (Тува, Россия) (118 км)
Погода в Ермаковском (Красноярский край, Россия) (121 км)
Погода в Черемушках (Хакасия, Россия) (127 км)
Погода в Карловом Створе (Хакасия, Россия) (128 км)
Погода в Хову-Аксы (Тува, Россия) (140 км)
Погода в Саяногорске (Хакасия, Россия) (141 км)

Пояснения к столбцам:

Ветер - указаны скорость ветра в м/с - средняя за 10 мин, порывы в срок и между сроками (в фигурных скобках) и направление, откуда дует ветер: С - северный, СВ - северо-восточный, В - восточный, ЮВ - юго-восточный, Ю - южный, ЮЗ - юго-западный, З - западный, СЗ - северо-западный.
Видимость - горизонтальная дальность видимости в метрах или километрах. При видимости от 1 до 10 км при отсутствии осадков обычно наблюдается дымка, при ухудшении видимости до 1 км и менее - туман. В сухую погоду видимость может ухудшаться дымом, пылью или мглою.
Явления - указаны атмосферные явления, наблюдавшиеся в срок или в последний час перед сроком; фигурными скобками обозначены явления, наблюдавшиеся между сроками (за 1-3 часа до срока); квадратными скобками обозначены град или гололедные отложения с указанием их диаметра в мм.
Облачность - указаны через наклонную черту общая и нижняя облачность в баллах и высота нижней границы облаков в метрах; квадратными скобками обозначены формы облаков: Ci - перистые, Cs - перисто-слоистые, Cc - перисто-кучевые, Ac - высококучевые, As - высокослоистые, Sc - слоисто-кучевые, Ns - слоисто-дождевые, Cu - кучевые, Cb - кучево-дождевые. Подробнее классификацию облаков см. в Атласе облаков (PDF).
T - Температура воздуха - температура, измеренная на высоте 2 м над землей.
Td - Температура точки росы - температура, при понижении до которой содержащийся в воздухе водяной пар достигнет насыщения.
f - Относительная влажность воздуха - влажноcть воздуха, измеренная на высоте 2 м над землей.
Te - Эффективная температура - температура, которую ощущает одетый по сезону человек в тени. Характеристика душности погоды. При расчете учитывается влияние влажности воздуха и скорости ветра на теплоощущения человека.
Tes - Эффективная температура на солнце - температура, которую ощущает человек, с поправкой на солнечный нагрев. Характеристика знойности погоды. Зависит от высоты солнца над горизонтом, облачности и скорости ветра. Ночью, в пасмурную погоду, а также при ветре 12 м/с и более поправка равна нулю.
P - Атмосферное давление - приведенное к уровню моря атмосферное давление.
Po - Атмосферное давление - измеренное на уровне метеостанции атмосферное давление.
Tmin - Минимальная температура - минимум температуры воздуха на высоте 2 м над землей.
Tmax - Максимальная температура - максимум температуры воздуха на высоте 2 м над землей.
R - Количество осадков - Количество выпавших осадков за период времени, мм. При наведении курсора мыши на число - период времени, за который выпало указанное количество осадков.
R24 - Количество осадков - Количество выпавших осадков за 24 часа, мм.
S - Снежный покров - Высота снежного покрова, см. При наведении курсора мыши на число - состояние снежного покрова и степень покрытия местности в баллах.